• Em Portugal
  • Lista de países
  • Para 7 dias
  • Temperatura da água
  • Mapas de satélite
  • Mapa do tempo
  • Widgets de tempo
  • user-avatar
    Iniciar Sessão

    Previsão horária em Bursa

    Hoje, 20 Outubro, Sexta-feira

    Tempo Temperatura Precipitação Vento Pressão Humidade
    00:00 +16°C° 0 mm 1 m/s 733 mmHg 47%
    01:00 +16°C° 0 mm 1 m/s 733 mmHg 48%
    02:00 +16°C° 0 mm 1 m/s 733 mmHg 48%
    03:00 +16°C° 0 mm 1 m/s 733 mmHg 48%
    04:00 +15°C° 0 mm 1 m/s 733 mmHg 48%
    05:00 +15°C° 0 mm 1 m/s 732 mmHg 49%
    06:00 +16°C° 0 mm 1 m/s 733 mmHg 47%
    07:00 +18°C° 0 mm 1 m/s 733 mmHg 44%
    08:00 +20°C° 0 mm 1 m/s 733 mmHg 42%
    09:00 +22°C° 0 mm 1 m/s 733 mmHg 38%
    10:00 +24°C° 0 mm 1 m/s 734 mmHg 34%
    11:00 +26°C° 0 mm 1 m/s 734 mmHg 30%
    12:00 +26°C° 0 mm 1 m/s 733 mmHg 29%
    13:00 +26°C° 0 mm 2 m/s 733 mmHg 28%
    14:00 +27°C° 0 mm 2 m/s 733 mmHg 27%
    15:00 +25°C° 0 mm 2 m/s 733 mmHg 33%
    16:00 +23°C° 0 mm 2 m/s 732 mmHg 38%
    17:00 +22°C° 0 mm 1 m/s 732 mmHg 44%
    18:00 +21°C° 0 mm 1 m/s 733 mmHg 47%
    19:00 +19°C° 0 mm 1 m/s 733 mmHg 51%
    20:00 +18°C° 0 mm 1 m/s 733 mmHg 55%
    21:00 +18°C° 0 mm 1 m/s 733 mmHg 55%
    22:00 +16°C° 0 mm 1 m/s 733 mmHg 56%
    23:00 +16°C° 0 mm 1 m/s 733 mmHg 56%

    Amanhã, 21 Outubro, Sábado

    Tempo Temperatura Precipitação Vento Pressão Humidade
    00:00 +16°C° 0 mm 1 m/s 733 mmHg 57%
    01:00 +16°C° 0 mm 1 m/s 733 mmHg 57%
    02:00 +15°C° 0 mm 1 m/s 733 mmHg 57%
    03:00 +15°C° 0 mm 1 m/s 733 mmHg 58%
    04:00 +15°C° 0 mm 1 m/s 733 mmHg 58%
    05:00 +14°C° 0 mm 1 m/s 733 mmHg 59%
    06:00 +15°C° 0 mm 1 m/s 733 mmHg 55%
    07:00 +18°C° 0 mm 1 m/s 733 mmHg 52%
    08:00 +19°C° 0 mm 1 m/s 733 mmHg 48%
    09:00 +21°C° 0 mm 1 m/s 733 mmHg 43%
    10:00 +22°C° 0 mm 1 m/s 733 mmHg 37%
    11:00 +24°C° 0 mm 1 m/s 733 mmHg 32%
    12:00 +25°C° 0 mm 1 m/s 733 mmHg 31%
    13:00 +25°C° 0 mm 2 m/s 732 mmHg 30%
    14:00 +25°C° 0 mm 2 m/s 732 mmHg 29%
    15:00 +24°C° 0 mm 2 m/s 732 mmHg 35%
    16:00 +21°C° 0 mm 2 m/s 731 mmHg 40%
    17:00 +20°C° 0 mm 2 m/s 731 mmHg 46%
    18:00 +19°C° 0 mm 1 m/s 731 mmHg 51%
    19:00 +18°C° 0 mm 1 m/s 732 mmHg 56%
    20:00 +16°C° 0 mm 1 m/s 732 mmHg 61%
    21:00 +15°C° 0 mm 1 m/s 732 mmHg 62%
    22:00 +15°C° 0 mm 1 m/s 732 mmHg 63%
    23:00 +15°C° 0 mm 1 m/s 732 mmHg 64%

    Depois de amanhã, 22 Outubro, Domingo

    Tempo Temperatura Precipitação Vento Pressão Humidade
    00:00 +14°C° 0 mm 1 m/s 732 mmHg 64%
    01:00 +14°C° 0 mm 1 m/s 732 mmHg 65%
    02:00 +14°C° 0 mm 1 m/s 731 mmHg 66%
    03:00 +13°C° 0 mm 1 m/s 731 mmHg 66%
    04:00 +13°C° 0 mm 1 m/s 731 mmHg 66%
    05:00 +13°C° 0 mm 1 m/s 731 mmHg 66%
    06:00 +14°C° 0 mm 1 m/s 731 mmHg 61%
    07:00 +15°C° 0 mm 1 m/s 731 mmHg 56%
    08:00 +16°C° 0 mm 1 m/s 732 mmHg 51%
    09:00 +19°C° 0 mm 1 m/s 732 mmHg 44%
    10:00 +22°C° 0 mm 1 m/s 732 mmHg 37%
    11:00 +24°C° 0 mm 1 m/s 732 mmHg 30%
    12:00 +24°C° 0 mm 1 m/s 731 mmHg 29%
    13:00 +24°C° 0 mm 2 m/s 731 mmHg 29%
    14:00 +25°C° 0 mm 2 m/s 731 mmHg 28%
    15:00 +23°C° 0 mm 2 m/s 730 mmHg 34%
    16:00 +21°C° 0 mm 2 m/s 730 mmHg 39%
    17:00 +19°C° 0 mm 2 m/s 730 mmHg 45%
    18:00 +18°C° 0 mm 2 m/s 730 mmHg 49%
    19:00 +18°C° 0 mm 1 m/s 730 mmHg 54%
    20:00 +15°C° 0 mm 1 m/s 730 mmHg 58%
    21:00 +15°C° 0 mm 1 m/s 730 mmHg 58%
    22:00 +15°C° 0 mm 2 m/s 730 mmHg 58%
    23:00 +15°C° 0 mm 2 m/s 730 mmHg 58%

    23 Outubro, Segunda-feira

    Tempo Temperatura Precipitação Vento Pressão Humidade
    00:00 +14°C° 0 mm 2 m/s 730 mmHg 58%
    01:00 +14°C° 0 mm 2 m/s 730 mmHg 57%
    02:00 +14°C° 0 mm 2 m/s 729 mmHg 57%
    03:00 +14°C° 0 mm 2 m/s 729 mmHg 55%
    04:00 +14°C° 0 mm 2 m/s 729 mmHg 54%
    05:00 +13°C° 0 mm 2 m/s 729 mmHg 53%
    06:00 +15°C° 0 mm 2 m/s 729 mmHg 50%
    07:00 +16°C° 0 mm 2 m/s 728 mmHg 46%
    08:00 +17°C° 0 mm 2 m/s 728 mmHg 43%
    09:00 +19°C° 0 mm 2 m/s 728 mmHg 37%
    10:00 +23°C° 0 mm 1 m/s 728 mmHg 30%
    11:00 +25°C° 0 mm 1 m/s 728 mmHg 24%
    12:00 +26°C° 0 mm 1 m/s 727 mmHg 23%
    13:00 +26°C° 0 mm 2 m/s 727 mmHg 22%
    14:00 +27°C° 0 mm 2 m/s 726 mmHg 21%
    15:00 +25°C° 0 mm 2 m/s 726 mmHg 26%
    16:00 +23°C° 0 mm 1 m/s 726 mmHg 31%
    17:00 +21°C° 0 mm 1 m/s 725 mmHg 36%
    18:00 +20°C° 0 mm 1 m/s 725 mmHg 37%
    19:00 +19°C° 0 mm 1 m/s 726 mmHg 38%
    20:00 +17°C° 0 mm 2 m/s 726 mmHg 39%
    21:00 +17°C° 0 mm 2 m/s 726 mmHg 39%
    22:00 +17°C° 0 mm 2 m/s 726 mmHg 40%
    23:00 +16°C° 0 mm 2 m/s 726 mmHg 40%

    24 Outubro, Terça-feira

    Tempo Temperatura Precipitação Vento Pressão Humidade
    00:00 +16°C° 0 mm 2 m/s 726 mmHg 40%
    01:00 +16°C° 0 mm 2 m/s 725 mmHg 40%
    02:00 +15°C° 0 mm 2 m/s 725 mmHg 40%
    03:00 +15°C° 0 mm 2 m/s 725 mmHg 40%
    04:00 +15°C° 0 mm 2 m/s 725 mmHg 40%
    05:00 +15°C° 0 mm 2 m/s 725 mmHg 40%
    06:00 +16°C° 0 mm 2 m/s 725 mmHg 40%
    07:00 +17°C° 0 mm 2 m/s 726 mmHg 40%
    08:00 +18°C° 0 mm 2 m/s 726 mmHg 39%
    09:00 +20°C° 0 mm 2 m/s 726 mmHg 36%
    10:00 +22°C° 0 mm 3 m/s 726 mmHg 32%
    11:00 +25°C° 0 mm 3 m/s 726 mmHg 28%
    12:00 +26°C° 0 mm 3 m/s 726 mmHg 27%
    13:00 +26°C° 0 mm 3 m/s 725 mmHg 27%
    14:00 +27°C° 0 mm 3 m/s 725 mmHg 26%
    15:00 +25°C° 0,1 mm 3 m/s 725 mmHg 32%
    16:00 +22°C° 0,1 mm 3 m/s 725 mmHg 38%
    17:00 +21°C° 0,1 mm 3 m/s 725 mmHg 44%
    18:00 +20°C° 0,3 mm 3 m/s 725 mmHg 51%
    19:00 +19°C° 0,3 mm 3 m/s 726 mmHg 58%
    20:00 +18°C° 0,3 mm 2 m/s 726 mmHg 65%
    21:00 +17°C° 0,1 mm 2 m/s 726 mmHg 66%
    22:00 +17°C° 0,1 mm 3 m/s 726 mmHg 66%
    23:00 +17°C° 0,1 mm 3 m/s 726 mmHg 67%

    25 Outubro, Quarta-feira

    Tempo Temperatura Precipitação Vento Pressão Humidade
    00:00 +16°C° 0 mm 2 m/s 726 mmHg 69%
    01:00 +16°C° 0 mm 2 m/s 726 mmHg 70%
    02:00 +15°C° 0 mm 2 m/s 726 mmHg 72%
    03:00 +15°C° 0 mm 2 m/s 726 mmHg 73%
    04:00 +15°C° 0 mm 2 m/s 726 mmHg 74%
    05:00 +15°C° 0 mm 2 m/s 726 mmHg 75%
    06:00 +16°C° 0,1 mm 2 m/s 726 mmHg 74%
    07:00 +16°C° 0,1 mm 2 m/s 727 mmHg 74%
    08:00 +17°C° 0,1 mm 2 m/s 727 mmHg 74%
    09:00 +18°C° 0,2 mm 2 m/s 727 mmHg 71%
    10:00 +19°C° 0,2 mm 3 m/s 727 mmHg 68%
    11:00 +19°C° 0,2 mm 3 m/s 727 mmHg 65%
    12:00 +19°C° 0,5 mm 3 m/s 727 mmHg 68%
    13:00 +18°C° 0,5 mm 2 m/s 727 mmHg 70%
    14:00 +18°C° 0,5 mm 2 m/s 727 mmHg 72%
    15:00 +17°C° 0,2 mm 2 m/s 727 mmHg 76%
    16:00 +17°C° 0,2 mm 2 m/s 728 mmHg 79%
    17:00 +16°C° 0,2 mm 2 m/s 728 mmHg 82%
    18:00 +16°C° 0,3 mm 2 m/s 728 mmHg 84%
    19:00 +15°C° 0,3 mm 2 m/s 728 mmHg 86%
    20:00 +15°C° 0,3 mm 2 m/s 728 mmHg 88%
    21:00 +15°C° 0,2 mm 2 m/s 728 mmHg 88%
    22:00 +15°C° 0,2 mm 2 m/s 729 mmHg 89%
    23:00 +14°C° 0,2 mm 2 m/s 729 mmHg 90%
    Mostrar mais